This is the latest recevied weather packets stored in our database for station/object KB1ZFK. If no packets are shown the sender has not sent any weather packets the latest 10 day(s).
| Time | Temp. | Humidity | Pressure | Rain* | Wind** | Luminosity | Snow |
|---|---|---|---|---|---|---|---|
| 1777714256 | 6.11° C | 94% | 1011.4 hPa | 1.78 mm | - | 0 W/m² | - |
| 1777713954 | 6.11° C | 94% | 1011.5 hPa | 1.78 mm | - | 0 W/m² | - |
| 1777713651 | 6.11° C | 94% | 1011.2 hPa | 0 mm | - | 0 W/m² | - |
| 1777713347 | 6.11° C | 93% | 1011 hPa | 0 mm | - | 0 W/m² | - |
| 1777713045 | 6.11° C | 93% | 1011.2 hPa | 1.27 mm | - | 0 W/m² | - |
| 1777712741 | 6.11° C | 93% | 1011.3 hPa | 1.27 mm | - | 0 W/m² | - |
| 1777712439 | 6.11° C | 92% | 1010.9 hPa | 0 mm | - | 0 W/m² | - |
| 1777712134 | 6.11° C | 92% | 1011.2 hPa | 1.78 mm | - | 0 W/m² | - |
| 1777711832 | 6.67° C | 90% | 1011.3 hPa | 1.78 mm | - | 0 W/m² | - |
| 1777711529 | 6.67° C | 88% | 1011 hPa | 0 mm | - | 0 W/m² | - |
| 1777711224 | 6.67° C | 86% | 1010.9 hPa | 0 mm | - | 0 W/m² | - |
| 1777710921 | 6.67° C | 86% | 1011.1 hPa | 0 mm | - | 0 W/m² | - |
| 1777710618 | 6.67° C | 85% | 1011.2 hPa | 0 mm | - | 0 W/m² | - |
| 1777710315 | 6.67° C | 86% | 1011.1 hPa | 0 mm | - | 0 W/m² | - |
| 1777710012 | 6.67° C | 87% | 1011.2 hPa | 0 mm | - | 0 W/m² | - |
| 1777709710 | 6.67° C | 88% | 1011.1 hPa | 0 mm | - | 0 W/m² | - |
| 1777709406 | 6.67° C | 86% | 1010.9 hPa | 0 mm | - | 0 W/m² | - |
| 1777709104 | 7.22° C | 87% | 1011 hPa | 0 mm | - | 0 W/m² | - |
| 1777708801 | 7.22° C | 82% | 1011.1 hPa | 0 mm | - | 0 W/m² | - |
| 1777708498 | 7.22° C | 77% | 1011 hPa | 0 mm | - | 0 W/m² | - |
| 1777708196 | 7.22° C | 82% | 1011.2 hPa | 0 mm | - | 0 W/m² | - |
| 1777707894 | 6.67° C | 86% | 1011.2 hPa | 0 mm | - | 0 W/m² | - |
| 1777707590 | 7.22° C | 85% | 1011.2 hPa | 0 mm | - | 0 W/m² | - |
| 1777707286 | 7.22° C | 84% | 1011.1 hPa | 0 mm | - | 0 W/m² | - |
| 1777706984 | 7.22° C | 82% | 1011.4 hPa | 0 mm | - | 0 W/m² | - |
* Rain latest hour (hover to see other rain measurements)
** Current wind speed in m/s (hover to see current wind gust speed)